Weather in Staroye Surkino

Russia / Samara Oblast     54°18′08″N   51°37′48″E
temp.,
°C
wind,
m/s
gust,
m/s
humid.,
%
clouds,
%
prec.,
mm/h
press.,
hPa
HPBL,
m
27 february, sat
sat2701:00−14sse101894100 2.2 1006556
04:00−12sse91594100 8.3 1002607
07:00−10sse61295100 0.6 999380
10:00−8sse6995100 1.1 998274
13:00−3s4697100 0.8 997269
16:000wsw4799100 2.2 997348
19:000sw3599100 1.4 997256
22:000wsw1399100 2.3 997103
28 february, sun
sun2801:00−1nw3598100 0.8 998189
04:00−8nnw599597 1.1 1000222
07:00−12n5109397 0.1 1002323
10:00−13n599398 0.3 1004350
13:00−12nnw6892100 0.1 1006407
16:00−12nnw6992100 0.3 1009431
19:00−15nnw5994100 0.1 1011386
22:00−18nnw349795 0.1 101491
1 march, mon
mon101:00−20nnw239960 0.0 101528
04:00−22nnw239950 0.0 101720
07:00−23nnw239936 0.0 101921
10:00−20nnw249639 0.0 1021196
13:00−17nnw359350 0.0 1022265
16:00−16nnw359359 0.0 1022257
19:00−21nnw229815 0.0 102320
22:00−23wnw1110013 0.0 102320
2 march, tue
tue201:00−23sw121007 0.0 102220
04:00−23ssw3310019 0.0 102023
07:00−23s359964 0.0 101776
10:00−19s5109882 0.0 1014273
13:00−14s71195100 0.1 1011402
16:00−11ssw71394100 1.0 1008525
19:00−9s61394100 0.6 1005526
22:00−7s71395100 1.4 1003482
3 march, wed
wed301:00−5s51096100 0.8 1000424
04:00−5s3897100 1.6 999255
07:00−6ssw349797 0.4 99996
10:00−3w359698 1.2 1000332
13:00−5nnw7109499 0.4 1001467
16:00−6nnw71191100 0.8 1002625
19:00−7nnw61292100 0.1 1004504
22:00−8nnw499598 0.1 1006211